• In Hungary
  • List of Countries
  • For 7 days
  • Water Temperature
  • Satellite Maps
  • Weather Map
  • News
  • Weather Widgets
  • user-avatar
    Login

    Hourly Weather Kaczkow

    Today, 18 October, Thursday

    Time Temperature Precipitation Wind Pressure Humidity
    00:00 +14°C° 0 mm 2 mps 751 mmHg 57%
    01:00 +14°C° 0 mm 1 mps 751 mmHg 58%
    02:00 +13°C° 0 mm 1 mps 751 mmHg 59%
    03:00 +13°C° 0 mm 1 mps 751 mmHg 60%
    04:00 +13°C° 0 mm 1 mps 751 mmHg 61%
    05:00 +13°C° 0 mm 1 mps 751 mmHg 62%
    06:00 +13°C° 0 mm 1 mps 751 mmHg 63%
    07:00 +13°C° 0 mm 1 mps 751 mmHg 63%
    08:00 +15°C° 0 mm 1 mps 751 mmHg 58%
    09:00 +16°C° 0 mm 1 mps 751 mmHg 52%
    10:00 +17°C° 0 mm 0 mps 750 mmHg 47%
    11:00 +20°C° 0 mm 1 mps 750 mmHg 45%
    12:00 +21°C° 0 mm 1 mps 750 mmHg 43%
    13:00 +22°C° 0 mm 1 mps 750 mmHg 41%
    14:00 +21°C° 0 mm 1 mps 750 mmHg 44%
    15:00 +20°C° 0 mm 1 mps 749 mmHg 48%
    16:00 +20°C° 0 mm 1 mps 749 mmHg 51%
    17:00 +17°C° 0 mm 0 mps 749 mmHg 53%
    18:00 +16°C° 0 mm 0 mps 750 mmHg 55%
    19:00 +15°C° 0 mm 0 mps 750 mmHg 57%
    20:00 +15°C° 0 mm 0 mps 750 mmHg 58%
    21:00 +15°C° 0 mm 0 mps 750 mmHg 60%
    22:00 +14°C° 0 mm 0 mps 750 mmHg 61%
    23:00 +15°C° 0 mm 1 mps 750 mmHg 64%

    Tomorrow, 19 October, Friday

    Time Temperature Precipitation Wind Pressure Humidity
    00:00 +14°C° 0 mm 1 mps 750 mmHg 67%
    01:00 +14°C° 0 mm 1 mps 750 mmHg 70%
    02:00 +13°C° 0 mm 1 mps 750 mmHg 73%
    03:00 +13°C° 0 mm 2 mps 750 mmHg 75%
    04:00 +12°C° 0 mm 2 mps 750 mmHg 78%
    05:00 +12°C° 0 mm 2 mps 751 mmHg 79%
    06:00 +12°C° 0 mm 2 mps 751 mmHg 80%
    07:00 +12°C° 0 mm 2 mps 751 mmHg 81%
    08:00 +13°C° 0 mm 2 mps 752 mmHg 75%
    09:00 +15°C° 0 mm 2 mps 752 mmHg 68%
    10:00 +16°C° 0 mm 3 mps 752 mmHg 62%
    11:00 +17°C° 0 mm 3 mps 752 mmHg 60%
    12:00 +18°C° 0 mm 3 mps 752 mmHg 57%
    13:00 +19°C° 0 mm 3 mps 752 mmHg 55%
    14:00 +18°C° 0 mm 3 mps 752 mmHg 59%
    15:00 +17°C° 0 mm 3 mps 752 mmHg 63%
    16:00 +16°C° 0 mm 3 mps 752 mmHg 66%
    17:00 +14°C° 0 mm 3 mps 753 mmHg 71%
    18:00 +13°C° 0 mm 3 mps 753 mmHg 76%
    19:00 +12°C° 0 mm 3 mps 753 mmHg 80%
    20:00 +12°C° 0 mm 2 mps 754 mmHg 81%
    21:00 +10°C° 0 mm 2 mps 754 mmHg 81%
    22:00 +10°C° 0 mm 2 mps 754 mmHg 81%
    23:00 +9°C° 0 mm 2 mps 754 mmHg 82%

    Day after tomorrow, 20 October, Saturday

    Time Temperature Precipitation Wind Pressure Humidity
    00:00 +10°C° 0 mm 1 mps 754 mmHg 83%
    01:00 +9°C° 0 mm 1 mps 754 mmHg 83%
    02:00 +9°C° 0 mm 1 mps 755 mmHg 83%
    03:00 +9°C° 0 mm 1 mps 755 mmHg 83%
    04:00 +9°C° 0 mm 1 mps 755 mmHg 83%
    05:00 +9°C° 0 mm 1 mps 755 mmHg 81%
    06:00 +9°C° 0 mm 1 mps 755 mmHg 80%
    07:00 +9°C° 0 mm 1 mps 756 mmHg 78%
    08:00 +10°C° 0 mm 1 mps 756 mmHg 71%
    09:00 +12°C° 0 mm 2 mps 756 mmHg 64%
    10:00 +13°C° 0 mm 2 mps 756 mmHg 56%
    11:00 +13°C° 0 mm 3 mps 756 mmHg 55%
    12:00 +13°C° 0 mm 3 mps 756 mmHg 54%
    13:00 +14°C° 0 mm 4 mps 756 mmHg 52%
    14:00 +13°C° 0 mm 3 mps 756 mmHg 55%
    15:00 +13°C° 0 mm 3 mps 756 mmHg 57%
    16:00 +12°C° 0 mm 3 mps 756 mmHg 60%
    17:00 +11°C° 0 mm 3 mps 756 mmHg 63%
    18:00 +11°C° 0 mm 3 mps 756 mmHg 65%
    19:00 +10°C° 0 mm 3 mps 756 mmHg 68%
    20:00 +10°C° 0 mm 3 mps 756 mmHg 66%
    21:00 +10°C° 0 mm 4 mps 757 mmHg 65%
    22:00 +10°C° 0 mm 4 mps 757 mmHg 63%
    23:00 +9°C° 0 mm 3 mps 757 mmHg 67%

    21 October, Sunday

    Time Temperature Precipitation Wind Pressure Humidity
    00:00 +9°C° 0 mm 3 mps 757 mmHg 71%
    01:00 +8°C° 0 mm 3 mps 756 mmHg 76%
    02:00 +8°C° 0 mm 3 mps 756 mmHg 78%
    03:00 +8°C° 0 mm 3 mps 756 mmHg 81%
    04:00 +7°C° 0 mm 4 mps 756 mmHg 84%
    05:00 +8°C° 0 mm 3 mps 756 mmHg 86%
    06:00 +7°C° 0 mm 3 mps 757 mmHg 88%
    07:00 +7°C° 0 mm 3 mps 757 mmHg 90%
    08:00 +9°C° 0 mm 3 mps 757 mmHg 84%
    09:00 +10°C° 0 mm 4 mps 757 mmHg 77%
    10:00 +11°C° 0 mm 4 mps 757 mmHg 71%
    11:00 +12°C° 0 mm 4 mps 757 mmHg 65%
    12:00 +13°C° 0 mm 4 mps 756 mmHg 60%
    13:00 +13°C° 0 mm 4 mps 756 mmHg 54%
    14:00 +13°C° 0 mm 3 mps 756 mmHg 57%
    15:00 +12°C° 0 mm 3 mps 756 mmHg 60%
    16:00 +13°C° 0 mm 2 mps 756 mmHg 62%
    17:00 +12°C° 0 mm 2 mps 756 mmHg 67%
    18:00 +10°C° 0 mm 2 mps 756 mmHg 72%
    19:00 +9°C° 0 mm 2 mps 756 mmHg 78%
    20:00 +9°C° 0 mm 2 mps 756 mmHg 80%
    21:00 +9°C° 0 mm 2 mps 756 mmHg 83%
    22:00 +9°C° 0 mm 2 mps 756 mmHg 86%
    23:00 +8°C° 0 mm 2 mps 755 mmHg 87%

    22 October, Monday

    Time Temperature Precipitation Wind Pressure Humidity
    00:00 +8°C° 0 mm 2 mps 755 mmHg 88%
    01:00 +8°C° 0 mm 2 mps 755 mmHg 88%
    02:00 +8°C° 0 mm 2 mps 755 mmHg 88%
    03:00 +8°C° 0 mm 2 mps 755 mmHg 88%
    04:00 +8°C° 0 mm 2 mps 754 mmHg 88%
    05:00 +8°C° 0 mm 2 mps 754 mmHg 86%
    06:00 +8°C° 0 mm 3 mps 754 mmHg 84%
    07:00 +8°C° 0 mm 3 mps 754 mmHg 82%
    08:00 +9°C° 0 mm 3 mps 754 mmHg 78%
    09:00 +10°C° 0 mm 3 mps 754 mmHg 75%
    10:00 +10°C° 0 mm 4 mps 754 mmHg 71%
    11:00 +11°C° 0 mm 4 mps 753 mmHg 69%
    12:00 +11°C° 0 mm 4 mps 753 mmHg 67%
    13:00 +12°C° 0 mm 4 mps 753 mmHg 65%
    14:00 +11°C° 0 mm 4 mps 752 mmHg 66%
    15:00 +11°C° 0 mm 3 mps 752 mmHg 67%
    16:00 +11°C° 0 mm 3 mps 752 mmHg 67%
    17:00 +10°C° 0.3 mm 3 mps 752 mmHg 71%
    18:00 +10°C° 0.3 mm 3 mps 752 mmHg 75%
    19:00 +9°C° 0.3 mm 3 mps 752 mmHg 80%
    20:00 +9°C° 0.5 mm 3 mps 752 mmHg 82%
    21:00 +8°C° 0.5 mm 4 mps 752 mmHg 84%
    22:00 +8°C° 0.5 mm 4 mps 751 mmHg 87%
    23:00 +7°C° 0.1 mm 4 mps 751 mmHg 84%

    23 October, Tuesday

    Time Temperature Precipitation Wind Pressure Humidity
    00:00 +7°C° 0.1 mm 4 mps 751 mmHg 81%
    01:00 +7°C° 0.1 mm 4 mps 751 mmHg 78%
    02:00 +6°C° 0 mm 4 mps 751 mmHg 79%
    03:00 +5°C° 0 mm 4 mps 751 mmHg 80%
    04:00 +4°C° 0 mm 4 mps 750 mmHg 81%
    05:00 +4°C° 0 mm 4 mps 750 mmHg 82%
    06:00 +4°C° 0 mm 4 mps 750 mmHg 83%
    07:00 +3°C° 0 mm 4 mps 749 mmHg 85%
    08:00 +5°C° 0 mm 4 mps 749 mmHg 79%
    09:00 +6°C° 0 mm 4 mps 749 mmHg 74%
    10:00 +7°C° 0 mm 5 mps 748 mmHg 68%
    11:00 +8°C° 0 mm 5 mps 748 mmHg 65%
    12:00 +9°C° 0 mm 5 mps 747 mmHg 62%
    13:00 +9°C° 0 mm 6 mps 747 mmHg 59%
    14:00 +9°C° 0 mm 5 mps 746 mmHg 61%
    15:00 +8°C° 0 mm 4 mps 746 mmHg 62%
    16:00 +9°C° 0 mm 3 mps 745 mmHg 64%
    17:00 +8°C° 0 mm 3 mps 745 mmHg 67%
    18:00 +6°C° 0 mm 4 mps 744 mmHg 69%
    19:00 +6°C° 0 mm 4 mps 744 mmHg 71%
    20:00 +5°C° 0 mm 4 mps 744 mmHg 72%
    21:00 +5°C° 0 mm 4 mps 744 mmHg 73%
    22:00 +5°C° 0 mm 4 mps 744 mmHg 74%
    23:00 +5°C° 0.4 mm 4 mps 743 mmHg 76%
    Show more